Location: Lafig�re
(44.4503°N, 4.0357°E)
Time: 21:29:24
(UTC+00:00)

Cosmos 1092 Rocket - Pass Details

Date: 27 January 2021
Orbit: 954 x 995 km, 83.0° (Epoch: 07 March)

Event Time Altitude Azimuth Distance (km) Brightness Sun altitude
Rises 06:15:59 0° 341° (NNW) 3,645 6.6 -9.4°
Reaches altitude 10° 06:18:52 10° 329° (NNW) 2,698 5.9 -8.9°
Maximum altitude 06:23:47 26° 276° (W) 1,808 4.9 -8.1°
Drops below altitude 10° 06:28:42 10° 222° (SW) 2,700 6.1 -7.3°
Sets 06:31:37 0° 210° (SSW) 3,649 6.9 -6.8°
